TimeEST,TemperatureF,Dew PointF,Humidity,Sea Level PressureIn,VisibilityMPH,Wind Direction,Wind SpeedMPH,Gust SpeedMPH,PrecipitationIn,Events,Conditions,WindDirDegrees,DateUTC
12:51 AM,39.9,37.0,89,30.18,5.0,Calm,Calm,-,N/A,,Clear,0,2012-11-09 05:51:00
1:51 AM,39.0,36.0,89,30.18,5.0,NW,3.5,-,N/A,,Clear,320,2012-11-09 06:51:00
2:51 AM,39.0,35.1,86,30.19,6.0,NW,3.5,-,N/A,,Clear,320,2012-11-09 07:51:00
3:51 AM,37.0,34.0,89,30.19,5.0,Calm,Calm,-,N/A,,Clear,0,2012-11-09 08:51:00
4:51 AM,35.1,33.1,92,30.20,4.0,Calm,Calm,-,N/A,,Clear,0,2012-11-09 09:51:00
5:51 AM,35.6,33.8,93,30.22,5.0,NW,4.6,-,N/A,,Clear,310,2012-11-09 10:51:00
6:51 AM,33.8,32.0,93,30.24,4.0,West,4.6,-,N/A,,Clear,280,2012-11-09 11:51:00
7:51 AM,37.0,33.1,86,30.27,4.0,Calm,Calm,-,N/A,,Clear,0,2012-11-09 12:51:00
8:51 AM,48.0,37.0,66,30.29,5.0,Calm,Calm,-,N/A,,Haze,0,2012-11-09 13:51:00
9:51 AM,53.6,35.6,51,30.29,6.0,SE,3.5,-,N/A,,Haze,140,2012-11-09 14:51:00
10:51 AM,57.9,35.1,42,30.30,6.0,Calm,Calm,-,N/A,,Haze,0,2012-11-09 15:51:00
11:51 AM,63.0,35.1,35,30.28,7.0,Calm,Calm,-,N/A,,Clear,0,2012-11-09 16:51:00
12:51 PM,64.9,30.9,28,30.25,7.0,Calm,Calm,-,N/A,,Clear,0,2012-11-09 17:51:00
1:51 PM,66.9,28.9,24,30.23,8.0,North,3.5,-,N/A,,Clear,10,2012-11-09 18:51:00
2:51 PM,69.1,27.0,21,30.21,7.0,Calm,Calm,-,N/A,,Clear,0,2012-11-09 19:51:00
3:51 PM,69.1,30.0,23,30.20,7.0,WNW,3.5,-,N/A,,Clear,290,2012-11-09 20:51:00
4:51 PM,66.0,28.9,25,30.20,7.0,Calm,Calm,-,N/A,,Clear,0,2012-11-09 21:51:00
5:51 PM,57.9,34.0,41,30.22,8.0,Calm,Calm,-,N/A,,Clear,0,2012-11-09 22:51:00
6:51 PM,53.1,34.0,48,30.23,8.0,Calm,Calm,-,N/A,,Clear,0,2012-11-09 23:51:00
7:51 PM,48.9,34.0,56,30.25,8.0,Calm,Calm,-,N/A,,Clear,0,2012-11-10 00:51:00
8:51 PM,50.0,34.0,54,30.25,7.0,Calm,Calm,-,N/A,,Clear,0,2012-11-10 01:51:00
9:51 PM,48.9,34.0,56,30.26,7.0,Calm,Calm,-,N/A,,Clear,0,2012-11-10 02:51:00
10:51 PM,44.1,35.1,71,30.27,7.0,Calm,Calm,-,N/A,,Clear,0,2012-11-10 03:51:00
11:51 PM,43.0,35.1,74,30.27,7.0,Calm,Calm,-,N/A,,Clear,0,2012-11-10 04:51:00